Погода в Илфракомбе

Великобритания     51°12′24″N   4°07′31″W
темп.,
°C
ветер,
м/с
пор.,
м/с
влажн.,
%
обл.,
%
осадки,
мм/ч
давл.,
гПа
погр.,
м
22 апреля, чт
чт2201:00+9в1013771 0.0 1024647
04:00+7в912750 0.0 1024518
07:00+6в1013700 0.0 1025545
10:00+7в1012680 0.0 1026542
13:00+9в910620 0.0 1026591
16:00+10всв810680 0.0 1026224
19:00+11в68730 0.0 1026121
22:00+9юв36770 0.0 1027156
23 апреля, пт
пт2301:00+9в612700 0.0 1027410
04:00+8в711620 0.0 1026368
07:00+7в912690 0.0 1026372
10:00+8в911684 0.0 1027523
13:00+11в912696 0.0 1026252
16:00+12вюв8116452 0.0 1025145
19:00+12вюв8126198 0.0 1025224
22:00+10в81455100 0.0 1026336
24 апреля, сб
сб2401:00+9в91369100 0.0 1025354
04:00+8в10146945 0.0 1024411
07:00+8в11147066 0.0 1025429
10:00+8в101272100 0.0 1025435
13:00+10всв91275100 0.0 1024325
16:00+11в91375100 0.0 1024199
19:00+11в71080100 0.0 1024146
22:00+11в101573100 0.0 1025413
25 апреля, вс
вс2501:00+9в101476100 0.0 1025514
04:00+9в111478100 0.0 1024507
07:00+8в111481100 0.0 1024488
10:00+8в121481100 0.0 1024501
13:00+9всв101278100 0.0 1023517
16:00+11всв81176100 0.0 1021273
19:00+11всв81276100 0.0 1020258
22:00+11всв91275100 0.0 1020359
26 апреля, пн
пн2601:00+9в8117369 0.0 1019424
04:00+9всв89685 0.0 1018447
07:00+8всв896966 0.0 1017424
10:00+8всв67705 0.0 1016291
13:00+8св22701 0.0 1015139
16:00+10з67745 0.0 1013272
19:00+10зсз798339 0.0 1012196
22:00+10ссз611825 0.0 1013547